www.pogodaiklimat.ru

Погода и климат >> Архив погоды >> Сербия >> Чуприя


ПОГОДА в Чуприи

  • Прогноз погоды в Чуприи
  • Монитор погоды в Чуприи

АРХИВ ПОГОДЫ в Чуприи

Время (UTC), дата Ветер
(напр.,м/с)
 
Видим.   Явления Облачность Т
(С)
Тd
(С)
f
(%)
Тe
(С)
Тes
(С)
Комфортность P
(гПа)
Po
(гПа)
Тmin
(С)
Tmax
(С)
R
(мм)
R24
(мм)
S
(см)
13 13.08 В 3 30 км ясно +36.0 +7.9 18 +34 +44 очень
жарко
1009.9 996.3
14 13.08 В 2 30 км ясно +35.8 +8.6 19 +34 +42 очень
жарко
1009.3 995.7
15 13.08 В 2 30 км ясно +35.8 +8.6 19 +34 +39 очень
жарко
1009.0 995.3
16 13.08 В 3 30 км ясно +35.1 +7.6 18 +33 +34 жарко 1009.0 995.3
17 13.08 В 1 30 км ясно +32.8 +10.5 25 +32 +32 жарко 1009.1 995.3
18 13.08 В 1 30 км 3/0
[Ac trans]
+27.2 +12.1 39 +28 +28 жарко 1009.5 995.4 +36.4
19 13.08 СЗ 1 20 км 6/0
[Ac trans]
+26.0 +12.7 44 +28 +28 жарко 1010.8 996.7
20 13.08 С 1 20 км 8/3 1000 м
[Sc Ac trans]
+25.1 +13.4 48 +27 +27 жарко 1011.1 996.9
21 13.08 СЗ 1 20 км 8/5 1000 м
[Sc Ac trans]
+23.1 +14.3 58 +27 +27 душно 1011.3 997.1
22 13.08 штиль 0 20 км 8/8 1000 м
[Sc]
+22.0 +16.0 69 +26 +26 душно 1010.7 996.4
23 13.08 З 1 20 км 8/8 1000 м
[Sc]
+21.6 +16.1 71 +25 +25 комфорт 1010.3 996.0
00 14.08 штиль 0 20 км 4/4 1000 м
[Sc]
+20.8 +18.1 85 +25 +25 комфорт 1010.4 996.0
01 14.08 штиль 0 20 км ясно +19.2 +17.4 89 +21 +21 комфорт 1010.4 996.0
03 14.08 штиль 0 20 км ясно +18.1 +17.3 95 +18 +18 1010.6 996.1
06 14.08 СЗ 3 20 км 3/0
[Ac trans]
+22.3 +20.4 89 +29 +31 очень
душно
1011.3 997.1 +17.8
07 14.08 З 4 20 км 3/0
[Ac trans]
+24.0 +17.9 69 +28 +32 душно 1012.1 997.9
08 14.08 СЗ 4 20 км 8/5 1000 м
[Sc Ac trans]
+23.2 +18.4 74 +29 +31 душно 1013.1 998.8
09 14.08 СЗ 4 20 км 10/10 1000 м
[Sc]
+22.1 +18.5 80 +27 +27 душно 1013.9 999.6
10 14.08 СЗ 4 20 км 10/10 1000 м
[Sc]
+20.6 +18.3 87 +25 +25 комфорт 1014.7 1000.2
11 14.08 СЗ 4 20 км 10/10 1000 м
[Sc]
+20.6 +18.3 87 +25 +25 комфорт 1014.7 1000.2
12 14.08 СЗ 3 20 км 10/10 1000 м
[Sc]
+20.7 +18.4 87 +25 +25 комфорт 1014.5 1000.1
13 14.08 СЗ 3 20 км 10/10 1000 м
[Sc]
+21.2 +18.0 82 +25 +25 комфорт 1014.1 999.7
14 14.08 З 3 20 км 10/10 1000 м
[Sc]
+20.8 +17.9 83 +25 +25 комфорт 1013.7 999.3
15 14.08 СЗ 2 20 км 10/10 1000 м
[Sc]
+20.8 +17.9 83 +25 +25 комфорт 1013.7 999.3
16 14.08 З 2 10 км слаб. дождь 10/10 600 м
[Frnb]
+19.9 +19.0 95 +24 +24 комфорт 1014.4 1000.0
17 14.08 З 2 10 км дождь 10/10 600 м
[Frnb]
+19.0 +18.7 98 +21 +21 комфорт 1015.4 1000.9
18 14.08 З 2 10 км слаб. дождь 10/10 600 м
[Frnb]
+18.0 +17.8 99 +19 +19 1015.6 1001.0 +24.2 2
19 14.08 З 3 15 км слаб. дождь 10/10 1000 м
[Sc]
+18.0 +17.8 99 +18 +18 1015.6 1001.0
20 14.08 СЗ 2 10 км слаб. дождь 10/10 600 м
[Frnb]
+17.1 +17.1 100 +17 +17 1016.0 1001.3
21 14.08 З 2 10 км в посл. час дождь 10/10 1000 м
[Sc]
+17.1 +17.1 100 +17 +17 1016.2 1001.5
22 14.08 СЗ 2 10 км {дождь} 10/10 1000 м
[Sc]
+17.0 +17.0 100 +17 +17 1016.2 1001.5
23 14.08 СЗ 2 10 км {дождь} 10/10 1000 м
[Sc]
+17.0 +17.0 100 +17 +17 1016.2 1001.5
00 15.08 СЗ 2 10 км {дождь} 10/10 1000 м
[Sc]
+17.0 +17.0 100 +17 +17 1016.0 1001.1 0.4
01 15.08 СЗ 1 15 км 10/10 1000 м
[Sc]
+16.9 +16.9 100 +18 +18 1015.7 1001.0
02 15.08 штиль 0 15 км 10/10 1000 м
[Sc]
+16.9 +16.9 100 +17 +17 1015.7 1001.0
03 15.08 СЗ 1 15 км 10/10 1000 м
[Sc]
+16.9 +16.9 100 +18 +18 1015.7 1001.0
04 15.08 З 1 15 км 10/10 1000 м
[Sc]
+17.0 +17.0 100 +18 +18 1015.6 1000.9
05 15.08 СЗ 1 15 км 10/10 1000 м
[Sc]
+17.3 +17.2 99 +18 +18 1015.7 1001.0
06 15.08 З 2 15 км 10/10 1000 м
[Sc]
+17.4 +15.5 89 +18 +18 1015.7 1001.0 +16.3 0.4 24
07 15.08 С 2 15 км 10/10 1000 м
[Sc]
+16.3 +14.1 87 +16 +16 1016.1 1001.4
08 15.08 СЗ 3 20 км 9/9 1000 м
[Cu Sc]
+17.7 +14.5 82 +18 +19 1016.3 1001.7
09 15.08 СЗ 3 20 км 8/8 1000 м
[Cu Sc]
+19.7 +13.4 67 +22 +24 комфорт 1016.2 1001.7
10 15.08 З 3 20 км 4/4 1000 м
[Cu med, cong]
+21.3 +13.4 61 +24 +32 комфорт 1015.8 1001.4
11 15.08 С 3 20 км 4/4 1000 м
[Cu med, cong]
+12.5 +12.5 100 +11 +19 1015.4 1001.0
12 15.08 СЗ 3 20 км 4/4 1000 м
[Cu med, cong]
+23.6 +11.4 46 +25 +32 комфорт 1014.5 1000.2
13 15.08 З 3 20 км 3/3 1000 м
[Cu med, cong]
+25.0 +9.8 38 +26 +33 жарко 1014.2 1000.0
14 15.08 З 3 20 км ясно +24.9 +9.5 38 +26 +32 жарко 1013.9 999.7
15 15.08 З 2 20 км ясно +24.8 +9.4 38 +26 +30 жарко 1013.8 999.6
16 15.08 СЗ 2 20 км ясно +24.7 +9.0 37 +25 +27 комфорт 1013.8 999.6
17 15.08 СЗ 2 20 км 3/0
[Ac trans]
+23.3 +10.0 43 +25 +25 комфорт 1014.0 999.7
18 15.08 штиль 0 20 км ясно +20.4 +13.2 63 +22 +22 комфорт 1014.4 1000.0 +25.7
19 15.08 штиль 0 20 км ясно +16.9 +12.4 75 +17 +17 1015.7 1001.0
20 15.08 штиль 0 20 км ясно +14.0 +12.5 91 +14 +14 1016.0 1001.2
21 15.08 штиль 0 20 км ясно +13.1 +11.7 91 +13 +13 1016.3 1001.4
22 15.08 штиль 0 20 км ясно +12.2 +11.8 97 +12 +12 1016.3 1001.6
23 15.08 штиль 0 20 км ясно +12.2 +11.8 97 +12 +12 1016.5 1001.6
00 16.08 штиль 0 20 км ясно +11.0 +10.6 97 +10 +10 1016.3 1001.3
01 16.08 В 1 20 км ясно +10.5 +10.5 100 +10 +10 1016.5 1001.4
02 16.08 В 1 20 км ясно +10.3 +10.3 100 +10 +10 1016.6 1001.6
03 16.08 штиль 0 20 км ясно +9.8 +9.8 100 +9 +9 1016.9 1001.8
04 16.08 штиль 0 20 км ясно +8.8 +8.5 98 +8 +8 1017.4 1002.2
05 16.08 штиль 0 20 км ясно +11.0 +10.2 95 +10 +12 1017.5 1002.5
06 16.08 штиль 0 20 км 1/0
[Ac trans]
+14.4 +11.7 84 +14 +19 1017.5 1002.7 +8.5
07 16.08 Ю 1 20 км 1/0
[Ac trans]
+17.2 +11.4 69 +18 +26 1017.3 1002.7
08 16.08 СЗ 1 20 км 1/1 1000 м
[Cu med, cong]
+20.0 +11.7 59 +23 +34 комфорт 1017.2 1002.7
09 16.08 СЗ 2 20 км 1/1 1000 м
[Cu med, cong]
+22.0 +12.1 53 +24 +37 комфорт 1016.9 1002.5
10 16.08 С 3 20 км 3/3 1000 м
[Cu med, cong]
+24.1 +11.1 44 +25 +35 комфорт 1016.4 1002.1
11 16.08 С 2 20 км 4/4 1000 м
[Cu med, cong]
+24.6 +11.1 43 +26 +36 жарко 1016.1 1001.9
12 16.08 С 3 20 км 5/5 1000 м
[Cu med, cong]
+24.4 +10.3 41 +25 +31 комфорт 1015.7 1001.5
13 16.08 С 3 20 км 5/5 1000 м
[Cu med, cong]
+25.8 +10.9 39 +27 +32 жарко 1015.4 1001.2
14 16.08 С 3 20 км 8/8 1000 м
[Cu Sc]
+25.7 +10.0 37 +26 +28 жарко 1015.3 1001.1
15 16.08 С 2 20 км 8/8 1000 м
[Cu Sc]
+25.0 +10.8 41 +26 +27 жарко 1015.3 1001.1
16 16.08 С 2 20 км 6/6 1000 м
[Cu Sc]
+25.2 +11.1 41 +26 +27 жарко 1015.3 1001.1
17 16.08 С 1 20 км 3/0
[Ac trans]
+24.0 +11.1 44 +25 +25 комфорт 1015.3 1001.1
18 16.08 штиль 0 20 км 4/0
[Ac trans Ci fib]
+20.2 +11.7 58 +22 +22 комфорт 1015.9 1001.5 +26.5
19 16.08 В 1 20 км 4/0
[Ac trans Ci fib]
+17.0 +10.6 66 +18 +18 1016.8 1001.5
20 16.08 В 1 20 км 5/0
[Ac trans Ci fib]
+16.1 +12.8 81 +17 +17 1017.5 1002.8
21 16.08 СВ 1 20 км 5/0
[Ac trans Ci fib]
+14.7 +13.1 90 +15 +15 1017.9 1003.1
22 16.08 СЗ 1 20 км 10/10
[Sc]
+14.8 +13.1 90 +15 +15 1017.9 1003.1
23 16.08 С 1 20 км 6/0
[Ac trans Ci fib]
+14.9 +13.0 88 +15 +15 1018.1 1003.3
00 17.08 С 1 20 км 8/0
[Ac trans Ci fib]
+15.2 +12.5 84 +16 +16 1018.1 1003.3
01 17.08 штиль 0 20 км 8/0
[Ac trans Ci fib]
+13.1 +12.5 96 +13 +13 1017.8 1002.9
02 17.08 Ю 1 20 км 8/0
[Ac trans Ci fib]
+11.9 +11.7 99 +12 +12 1018.0 1003.1
03 17.08 В 1 20 км 8/0
[Ac trans Ci fib]
+11.8 +11.8 100 +11 +11 1018.1 1003.2
04 17.08 В 1 20 км 8/0
[Ac trans Ci fib]
+11.4 +11.4 100 +11 +11 1018.4 1003.5
05 17.08 В 1 20 км 5/0
[Ac trans Ci fib]
+12.9 +12.7 99 +13 +14 1018.8 1003.9
06 17.08 ЮВ 1 20 км 8/0
[Ac trans Ci fib]
+15.8 +13.5 86 +16 +19 1018.9 1004.1 +10.6
07 17.08 ЮВ 1 20 км 10/10 1000 м
[Sc]
+18.1 +13.2 73 +19 +19 1018.9 1004.3
08 17.08 СЗ 1 20 км 8/8 1000 м
[Sc]
+20.8 +13.0 61 +24 +27 комфорт 1019.0 1004.5
09 17.08 З 2 20 км 6/6 1000 м
[Cu Sc]
+23.5 +15.3 60 +26 +32 жарко 1018.5 1004.1
10 17.08 СЗ 2 20 км 6/6 1000 м
[Cu Sc]
+24.8 +15.3 56 +28 +34 жарко 1017.7 1003.5
11 17.08 СЗ 2 20 км 6/6 1000 м
[Cu Sc]
+26.1 +15.5 52 +29 +35 жарко 1016.9 1002.8
12 17.08 СЗ 2 20 км 5/5 1000 м
[Cu Sc]
+27.1 +15.8 50 +30 +37 душно 1016.5 1002.4
13 17.08 СЗ 2 20 км 6/6 1000 м
[Cu Sc]
+27.5 +13.4 42 +29 +34 жарко 1015.8 1001.7
14 17.08 З 2 20 км 6/6 1000 м
[Cu Sc]
+27.3 +13.1 42 +29 +32 жарко 1015.6 1001.5
15 17.08 С 2 20 км 8/8 1000 м
[Cu Sc]
+27.8 +15.3 46 +30 +31 жарко 1015.7 1001.6
16 17.08 З 2 20 км 8/5 1000 м
[Cu Sc Ac trans]
+26.8 +14.0 45 +29 +29 жарко 1015.7 1001.6
17 17.08 СЗ 1 20 км 5/3 1000 м
[Cu Sc Ac trans]
+25.4 +14.5 51 +28 +28 жарко 1015.8 1001.6
18 17.08 штиль 0 20 км 1/0
[Ci fib]
+21.4 +15.1 67 +25 +25 комфорт 1016.3 1001.9 +28.3
19 17.08 В 1 20 км ясно +19.1 +14.1 73 +21 +21 комфорт 1016.8 1002.3
20 17.08 штиль 0 20 км ясно +17.2 +13.6 79 +17 +17 1017.2 1002.5
21 17.08 штиль 0 20 км ясно +15.6 +13.0 85 +15 +15 1017.4 1002.7
22 17.08 В 1 20 км ясно +14.4 +12.5 88 +15 +15 1017.6 1002.8
23 17.08 штиль 0 20 км ясно +13.5 +12.0 91 +13 +13 1017.8 1002.9
00 18.08 штиль 0 20 км ясно +12.6 +11.4 92 +12 +12 1018.0 1003.0
01 18.08 штиль 0 20 км ясно +11.6 +10.5 93 +11 +11 1018.0 1003.0
02 18.08 штиль 0 20 км ясно +11.2 +10.3 94 +10 +10 1018.0 1003.0
03 18.08 штиль 0 20 км ясно +10.8 +10.0 95 +10 +10 1018.0 1003.0
04 18.08 штиль 0 20 км ясно +10.4 +9.7 95 +10 +10 1018.4 1003.3
05 18.08 штиль 0 20 км ясно +12.7 +11.7 94 +12 +14 1018.5 1003.6
06 18.08 ЮВ 1 20 км ясно +17.1 +14.5 85 +18 +22 1018.5 1003.7 +10.3
07 18.08 ЮВ 2 20 км ясно +20.4 +15.0 71 +24 +31 комфорт 1018.4 1003.9
08 18.08 Ю 2 20 км ясно +23.2 +14.5 58 +27 +38 душно 1018.1 1003.6
09 18.08 Ю 2 25 км 1/0
[Ci fib]
+25.4 +13.9 49 +28 +41 жарко 1017.8 1003.6
10 18.08 В 1 30 км 3/1 600 м
[Cu hum Ci fib]
+28.4 +11.2 34 +29 +45 жарко 1017.8 1002.9
11 18.08 СЗ 2 30 км 3/1 600 м
[Cu hum]
+29.5 +10.8 31 +30 +42 жарко 1016.4 1002.4
12 18.08 З 1 30 км 1/0
[Ci fib]
+30.2 +7.6 24 +29 +46 жарко 1016.2 1002.3
13 18.08 СЗ 1 30 км ясно +31.3 +5.6 20 +29 +43 жарко 1015.8 1001.9
14 18.08 СЗ 2 30 км ясно +31.1 +5.1 19 +29 +37 жарко 1015.4 1001.5
15 18.08 С 2 30 км ясно +31.4 +5.6 20 +30 +34 жарко 1015.1 1001.2
16 18.08 З 1 30 км ясно +30.9 +5.1 20 +29 +31 жарко 1015.0 1001.1
17 18.08 С 1 30 км ясно +29.4 +7.9 26 +29 +29 жарко 1015.2 1001.2
18 18.08 С 1 30 км ясно +23.1 +9.0 41 +25 +25 комфорт 1015.5 1001.2 +31.4
19 18.08 В 1 30 км ясно +20.1 +10.6 54 +23 +23 комфорт 1016.5 1002.0
20 18.08 В 1 25 км ясно +17.9 +11.7 67 +19 +19 1016.8 1002.2
21 18.08 В 1 20 км ясно +16.7 +13.1 79 +18 +18 1017.1 1002.4
22 18.08 В 1 20 км ясно +15.4 +13.2 87 +16 +16 1017.3 1002.5
23 18.08 В 1 20 км ясно +14.2 +13.1 93 +14 +14 1017.5 1002.7
00 19.08 В 1 20 км ясно +13.3 +12.4 94 +13 +13 1017.5 1002.7
01 19.08 штиль 0 20 км ясно +13.0 +12.5 97 +12 +12 1017.5 1002.7
02 19.08 В 1 20 км ясно +12.0 +12.0 100 +12 +12 1017.3 1002.5
03 19.08 В 1 20 км ясно +11.9 +11.9 100 +12 +12 1017.8 1002.8
04 19.08 В 1 20 км ясно +11.5 +11.5 100 +11 +11 1018.1 1003.1
05 19.08 В 1 20 км ясно +14.4 +14.3 99 +15 +16 1018.3 1003.5
06 19.08 штиль 0 20 км ясно +18.9 +13.4 70 +20 +25 1018.3 1003.7 +11.2
07 19.08 ЮВ 1 20 км ясно +22.8 +13.1 54 +26 +34 жарко 1018.1 1003.7
08 19.08 ЮВ 2 20 км ясно +24.8 +13.5 49 +27 +38 жарко 1017.7 1003.5
09 19.08 ЮВ 2 20 км ясно +28.3 +14.5 43 +31 +44 душно 1017.3 1003.2
10 19.08 ЮВ 2 20 км ясно +30.6 +15.1 39 +33 +49 душно 1016.9 1002.9
11 19.08 Ю 2 20 км ясно +31.9 +15.3 37 +34 +50 душно 1016.5 1002.7
12 19.08 Ю 2 20 км ясно +33.3 +14.7 33 +35 +49 душно 1016.3 1002.5
13 19.08 Ю 2 20 км ясно +34.0 +12.7 28 +34 +46 очень
жарко
1015.9 1002.1
14 19.08 З 2 20 км ясно +34.4 +11.7 25 +34 +42 очень
жарко
1015.5 1001.7
15 19.08 ЮЗ 2 20 км ясно +34.6 +12.1 26 +35 +39 очень
жарко
1015.5 1001.7
16 19.08 ЮЗ 1 20 км 4/0
[Ci fib]
+33.6 +12.8 28 +34 +35 очень
жарко
1015.1 1001.3
17 19.08 В 1 20 км 5/0
[Cs]
+31.9 +15.3 37 +34 +34 душно 1015.6 1001.7
18 19.08 В 2 20 км 1/0
[Ci fib]
+28.6 +14.8 43 +31 +31 жарко 1016.2 1002.2 +34.7
19 19.08 Ю 1 20 км ясно +24.4 +14.9 55 +27 +27 жарко 1016.9 1002.7
20 19.08 ЮВ 1 20 км ясно +21.7 +14.4 63 +25 +25 комфорт 1017.4 1003.0
21 19.08 ЮВ 1 20 км ясно +20.0 +13.8 67 +23 +23 комфорт 1017.8 1003.3
22 19.08 штиль 0 20 км ясно +17.9 +13.0 73 +18 +18 1018.2 1003.3
23 19.08 штиль 0 20 км ясно +17.1 +12.8 76 +17 +17 1018.2 1003.5
00 20.08 В 1 20 км ясно +16.5 +12.8 79 +17 +17 1018.3 1003.6
01 20.08 штиль 0 20 км ясно +15.6 +13.0 85 +15 +15 1018.6 1003.8
02 20.08 В 1 20 км ясно +15.0 +14.0 94 +15 +15 1018.6 1003.8
03 20.08 В 1 20 км ясно +14.1 +13.9 99 +14 +14 1018.9 1004.1
05 20.08 штиль 0 20 км ясно +16.4 +13.8 85 +16 +18 1020.1 1005.4
06 20.08 ЮВ 1 20 км ясно +19.8 +14.1 70 +23 +27 комфорт 1020.2 1005.7 +13.4
07 20.08 ЮВ 1 20 км ясно +23.7 +14.8 57 +26 +34 жарко 1019.9 1005.5
08 20.08 Ю 1 20 км ясно +26.8 +14.4 47 +29 +42 жарко 1019.7 1005.5
09 20.08 Ю 1 20 км ясно +29.5 +15.0 41 +32 +48 душно 1019.4 1005.4
10 20.08 Ю 2 20 км ясно +32.4 +14.7 34 +34 +50 очень
жарко
1018.9 1005.0
11 20.08 Ю 2 20 км ясно +33.4 +14.7 32 +35 +50 душно 1018.3 1004.5

 

Местоположение метеостанции Чуприя (Сербия): широта 43.93 долгота 21.38 высота над уровнем моря 125 м.

В архиве по умолчанию представлена погода в Чуприи за последнюю неделю. Архивные данные за месяц целиком и за предыдущие месяцы, начиная с января 2011 года, Вы можете получить, выбрав интересующий диапазон дат из раскрывающегося списка и нажав кнопку "Ввод!".


*Определитесь, кто Вы:
робот инопланетянин человек

Внимание! Время в таблицах - всемирное. Для получения местного времени необходимо прибавить поправку, которая равна 1 ч.

Смотрите также архив погоды в соседних городах и на ближайших метеорологических станциях:

Погода в Крагуеваце (Сербия) (38 км)
Погода в Крушеваце (Сербия) (40 км)
Погода на Црни Врх (Сербия) (50 км)
Погода в Смедеревска-Паланке (Сербия) (60 км)
Погода в Кралево (Сербия) (60 км)
Погода в Нише (Сербия) (79 км)
Погода на Копаонике (Сербия) (86 км)
Погода в Молдова-Вече (Румыния) (90 км)
Погода в Велико-Градиште (Сербия) (92 км)
Погода в Неготине (Сербия) (99 км)

Пояснения к столбцам:

Ветер - указаны скорость ветра в м/с - средняя за 10 мин, порывы в срок и между сроками (в фигурных скобках) и направление, откуда дует ветер: С - северный, СВ - северо-восточный, В - восточный, ЮВ - юго-восточный, Ю - южный, ЮЗ - юго-западный, З - западный, СЗ - северо-западный.
Видимость - горизонтальная дальность видимости в метрах или километрах. При видимости от 1 до 10 км при отсутствии осадков обычно наблюдается дымка, при ухудшении видимости до 1 км и менее - туман. В сухую погоду видимость может ухудшаться дымом, пылью или мглою.
Явления - указаны атмосферные явления, наблюдавшиеся в срок или в последний час перед сроком; фигурными скобками обозначены явления, наблюдавшиеся между сроками (за 1-3 часа до срока); квадратными скобками обозначены град или гололедные отложения с указанием их диаметра в мм.
Облачность - указаны через наклонную черту общая и нижняя облачность в баллах и высота нижней границы облаков в метрах; квадратными скобками обозначены формы облаков: Ci - перистые, Cs - перисто-слоистые, Cc - перисто-кучевые, Ac - высококучевые, As - высокослоистые, Sc - слоисто-кучевые, Ns - слоисто-дождевые, Cu - кучевые, Cb - кучево-дождевые. Подробнее классификацию облаков см. в Атласе облаков (PDF).
T - Температура воздуха - температура, измеренная на высоте 2 м над землей.
Td - Температура точки росы - температура, при понижении до которой содержащийся в воздухе водяной пар достигнет насыщения.
f - Относительная влажность воздуха - влажноcть воздуха, измеренная на высоте 2 м над землей.
Te - Эффективная температура - температура, которую ощущает одетый по сезону человек в тени. Характеристика душности погоды. При расчете учитывается влияние влажности воздуха и скорости ветра на теплоощущения человека.
Tes - Эффективная температура на солнце - температура, которую ощущает человек, с поправкой на солнечный нагрев. Характеристика знойности погоды. Зависит от высоты солнца над горизонтом, облачности и скорости ветра. Ночью, в пасмурную погоду, а также при ветре 12 м/с и более поправка равна нулю.
P - Атмосферное давление - приведенное к уровню моря атмосферное давление.
Po - Атмосферное давление - измеренное на уровне метеостанции атмосферное давление.
Tmin - Минимальная температура - минимум температуры воздуха на высоте 2 м над землей.
Tmax - Максимальная температура - максимум температуры воздуха на высоте 2 м над землей.
R - Количество осадков - Количество выпавших осадков за период времени, мм. При наведении курсора мыши на число - период времени, за который выпало указанное количество осадков.
R24 - Количество осадков - Количество выпавших осадков за 24 часа, мм.
S - Снежный покров - Высота снежного покрова, см. При наведении курсора мыши на число - состояние снежного покрова и степень покрытия местности в баллах.